{"data":{"norad_id":68764,"intl_designator":"2026-083K","name":"COSMOS 2614","alt_names":[],"object_type":"PAYLOAD","status":"ACTIVE","operator":null,"country":"CIS","launch_date":"2026-04-16","launch_site_code":"PLMSC","launch_vehicle":null,"mission":null,"orbit_class":"UNKNOWN","rcs_meters":null,"size_class":null,"mass_kg":null,"dimensions":null,"purposes":[],"wikipedia_slug":null,"has_3d_model":false,"image_url":null,"decayed_at":null,"tle_current":{"epoch":"2026-09-19T22:44:36.512448Z","epoch_age_seconds":107421,"freshness":"FRESH","line1":"1 68764U 26083K   26262.94764482  .00001508  00000+0  10755-3 0  9996","line2":"2 68764  97.7913  41.0469 0007522  62.4337 297.7653 15.06108055 23469","mean_motion":15.06108055,"eccentricity":0.0007522,"inclination_deg":97.7913,"raan_deg":41.0469,"arg_perigee_deg":62.4337,"mean_anomaly_deg":297.7653,"bstar":0.00010755,"rev_number":2346,"period_min":95.61066984666,"perigee_km":542.89655150843,"apogee_km":553.31639218748,"semimajor_km":6926.243471848,"source":"CELESTRAK","updated_at":"2026-09-20T09:00:24.453691Z"}}}